Temp
18 18 18 18 18 18 18 18 18 18 18 18 18 19 20 20 20 21 21 21 21 22 22 22 21 22 21 21 20 20 20 20 20 20 20 20 18 17 17 18 20 20 20 20 20 20 20 20 21 21 21 20 20 21 21 21 21 20 20 20 20 19 19 18 17 17 18 19 19 18 18 17 17 17 16 16 15 15 14 14 14 14 14 14 14
18 18 19 19 19 19 19 19 18 18 18 18 18 19 19 19 19 19 20 21 21 21 22 22 22 22 22 21 21 21 21 21 21 21 21 21 20 19 17 17 18 20 20 20 20 20 20 20 20 20 20 20 20 20 20 20 20 20 20 20 19 19 19 19 18 17 17 18 18 18 17 17 17 17 16 16 16 15 15 14 14 14 14 14 14
17 18 18 18 19 19 19 19 18 18 18 18 18 19 19 18 18 18 18 20 20 21 21 21 21 22 22 21 21 21 21 21 22 22 22 22 21 21 19 18 17 18 19 20 20 20 20 20 20 20 20 20 20 20 20 20 20 20 20 20 19 19 19 19 18 18 17 18 18 18 17 17 16 17 17 16 16 16 15 15 14 14 14 14 14
17 18 18 18 19 19 19 19 19 18 18 18 18 19 19 19 18 18 18 19 19 19 20 20 19 19 20 20 21 21 21 21 21 22 23 23 22 21 21 20 18 17 18 19 20 20 20 20 20 20 20 19 20 20 20 20 20 20 20 20 19 19 19 19 19 18 18 18 18 18 18 17 17 17 16 16 15 15 15 15 14 14 14 14 14
16 17 17 17 18 18 19 19 19 19 19 19 19 19 19 19 19 19 19 19 19 19 19 19 18 18 19 19 20 21 20 19 20 22 23 23 22 22 21 20 20 19 18 18 19 20 20 20 20 20 19 19 19 19 19 19 19 19 19 19 19 19 19 19 19 18 18 18 18 18 17 17 17 16 16 16 15 14 14 14 14 14 14 14 14
15 16 17 17 17 17 18 19 19 19 19 19 19 19 18 18 18 19 19 19 19 20 20 20 19 18 18 19 19 20 20 19 18 20 22 22 22 22 21 20 20 20 20 18 18 18 19 20 20 20 20 19 19 19 19 19 19 19 19 19 19 19 19 19 19 19 18 18 18 17 17 16 16 16 16 16 15 14 14 13 13 13 13 13 13
14 15 15 16 17 17 17 18 18 18 19 19 19 19 18 18 18 18 19 19 19 19 19 20 20 20 19 19 19 19 19 19 19 18 19 20 21 21 21 21 20 20 20 20 19 18 19 20 20 19 20 20 20 19 19 19 19 19 19 19 19 19 19 19 19 19 18 18 18 18 17 16 16 16 16 15 15 15 14 13 12 12 13 13 13
14 14 14 15 16 17 17 17 18 18 18 18 18 18 18 18 18 18 18 18 18 18 18 19 20 20 20 20 20 19 19 19 19 19 19 19 19 20 21 21 20 20 19 20 20 19 19 19 20 20 20 20 20 20 19 19 19 19 19 19 18 18 18 19 19 18 18 18 18 17 17 16 15 15 15 15 14 13 14 13 13 13 13 13 13
13 14 14 14 15 16 17 17 17 18 18 18 18 18 18 18 19 19 18 18 18 18 18 18 19 19 20 19 19 19 19 19 19 19 19 19 19 19 19 19 20 19 19 19 19 19 19 19 19 20 20 20 20 20 20 20 19 19 19 19 18 18 18 18 18 18 18 17 17 17 16 16 15 14 14 14 14 13 13 13 13 13 13 12 12
13 13 13 14 15 15 16 16 17 17 17 17 18 18 18 18 18 18 18 18 18 18 18 18 18 18 18 18 19 19 18 19 19 19 19 19 19 18 18 18 19 19 18 18 18 18 19 19 19 19 20 20 20 20 20 20 20 19 19 19 19 19 18 18 18 18 17 17 17 17 16 15 15 15 15 14 14 14 14 13 13 13 13 12 12
12 12 13 13 14 14 15 16 16 16 17 17 17 17 17 17 18 18 18 18 18 18 18 18 18 18 18 18 18 18 18 19 19 19 19 19 19 19 19 18 18 18 18 18 18 18 18 18 19 19 19 19 20 20 20 20 20 20 20 20 19 19 19 18 18 18 17 17 17 17 16 16 16 16 15 15 14 14 14 14 13 13 12 12 12
12 12 12 13 13 14 14 15 15 16 16 16 16 17 17 17 17 17 17 17 17 17 17 17 17 17 17 17 18 18 18 19 19 19 20 20 19 19 19 18 18 18 18 18 19 19 18 18 18 18 18 19 19 20 20 20 20 20 20 20 20 20 20 19 19 18 18 17 17 17 17 17 16 16 16 15 15 14 14 14 13 13 13 12 12
11 12 12 12 13 13 14 14 14 14 14 15 15 15 15 16 16 16 17 17 17 17 17 17 17 17 17 17 17 17 18 18 19 19 20 20 20 19 18 18 18 18 19 19 19 19 19 19 18 18 18 18 18 19 20 20 20 20 20 20 20 20 20 20 20 20 19 18 18 17 18 17 17 17 17 16 16 15 14 14 13 13 13 13 13
11 11 11 12 12 12 13 13 13 13 13 13 13 13 14 14 14 15 15 16 16 17 17 17 17 17 17 17 17 17 17 18 19 19 20 20 20 19 18 18 18 18 18 19 19 19 19 19 19 18 18 18 18 18 19 19 20 20 20 20 20 20 20 20 20 20 20 19 19 19 19 18 18 18 18 17 17 16 15 14 14 14 14 15 15
11 11 11 11 11 11 12 12 12 12 12 12 12 12 13 13 13 14 14 14 15 15 16 17 17 17 17 17 17 17 17 17 18 18 19 20 20 20 19 18 18 18 18 19 18 19 19 20 19 18 19 19 18 18 18 19 20 20 19 19 20 20 20 20 20 20 20 20 20 20 19 19 19 19 19 18 18 17 17 17 16 15 15 15 15
11 11 11 11 11 11 11 11 11 11 11 11 12 12 12 12 13 13 13 13 14 14 15 16 16 17 18 17 17 16 17 17 17 17 18 19 19 19 19 18 18 18 18 18 18 18 19 19 18 18 18 18 18 18 18 18 19 19 19 19 19 19 19 20 20 20 20 20 20 20 19 19 20 20 20 19 19 18 17 17 16 15 14 14 13
10 10 10 10 10 10 11 11 11 11 11 11 11 11 11 11 12 12 12 13 13 14 14 15 16 16 17 17 17 17 17 18 18 17 18 18 18 18 18 17 17 17 17 17 18 18 18 18 18 18 18 18 18 19 19 18 18 19 19 19 18 18 19 20 19 19 20 20 20 20 20 20 20 20 20 20 19 19 17 16 15 14 14 13 13
10 10 10 10 10 10 10 10 10 11 11 11 11 11 11 11 11 11 12 12 12 13 13 14 15 15 16 17 17 17 17 18 18 18 18 18 18 17 16 16 16 16 17 17 17 18 18 18 18 18 18 18 19 20 20 18 17 18 19 19 18 18 19 19 19 19 19 19 19 20 19 19 19 19 19 19 19 18 18 16 16 15 14 14 13
10 10 9 9 9 10 10 10 10 10 10 10 10 10 11 11 11 11 11 11 12 12 13 13 14 15 15 16 17 17 17 17 18 18 18 18 18 17 16 15 15 16 16 16 17 17 18 18 18 18 18 18 19 20 20 18 17 17 18 19 18 18 19 19 18 18 18 18 18 19 18 18 18 18 18 18 18 18 18 18 17 16 15 14 14
10 10 9 9 9 9 10 10 10 10 10 10 10 10 10 10 10 11 11 11 11 12 12 13 14 14 15 15 16 16 17 17 17 18 18 18 18 17 15 15 15 16 16 16 17 17 17 17 18 18 18 18 19 19 19 18 17 16 17 18 18 19 20 20 19 18 18 18 18 18 18 18 18 18 18 18 18 18 18 18 18 17 16 15 15
10 9 9 9 9 9 9 9 9 9 10 10 10 10 10 10 10 10 10 11 11 11 12 13 13 14 14 15 15 16 16 17 17 17 18 18 18 17 15 15 15 16 16 16 16 16 17 17 18 18 18 18 19 19 18 18 17 16 16 17 18 20 21 20 19 19 18 18 17 17 17 17 17 17 17 17 18 18 18 18 18 17 17 17 16
9 9 9 9 9 9 9 9 9 9 9 9 9 10 10 10 10 10 10 10 11 11 12 12 13 13 14 14 15 15 16 16 17 17 17 18 18 17 16 15 15 16 16 16 16 16 17 17 18 18 18 18 18 18 19 19 18 18 18 17 19 21 21 19 19 19 18 17 17 16 16 16 16 16 17 17 17 17 17 18 18 17 17 18 17
9 9 9 9 9 9 9 9 9 9 9 9 9 9 9 10 10 10 10 10 11 11 11 12 13 13 13 14 14 15 15 16 16 16 17 17 17 17 16 16 16 15 15 16 16 17 17 17 18 18 18 18 18 18 19 20 20 19 19 19 19 19 19 18 18 19 18 18 17 16 16 16 16 16 16 16 16 16 17 17 18 18 18 18 18
9 9 8 8 8 8 8 8 8 8 8 8 8 8 9 9 9 10 10 10 11 11 11 12 12 12 13 13 14 14 15 15 16 16 16 17 17 17 17 16 16 16 15 16 16 17 17 18 18 19 19 19 18 18 18 19 20 19 19 19 18 17 16 16 17 18 18 18 17 16 16 16 16 16 16 16 16 16 17 17 17 17 17 17 17
8 8 8 8 8 8 8 7 7 7 7 7 7 7 8 8 9 10 10 11 11 11 11 12 12 12 13 13 13 14 15 15 16 16 16 17 17 17 16 16 16 16 15 16 16 17 17 18 19 20 20 19 19 17 17 18 19 19 19 18 17 16 16 16 17 18 18 17 17 16 16 17 17 17 17 17 17 17 17 16 16 16 16 16 16
8 8 8 8 8 7 7 6 6 6 6 6 6 7 7 8 8 9 10 11 11 11 12 12 12 12 12 13 13 14 14 15 16 16 16 17 17 17 16 16 16 16 16 16 16 17 17 19 20 20 20 19 18 17 17 18 19 20 20 19 18 16 16 16 17 17 17 17 17 17 17 18 18 18 18 17 17 17 17 16 16 16 16 16 15
8 8 8 8 7 6 6 5 5 5 5 5 6 6 7 7 8 9 9 10 11 11 11 12 12 12 12 13 13 14 14 15 15 16 16 16 16 16 15 15 15 15 16 16 16 16 17 18 19 19 19 18 17 17 17 18 19 20 20 18 17 16 17 18 18 18 17 18 18 18 18 18 17 17 17 17 17 17 17 17 17 17 17 16 15
8 8 7 7 6 6 5 5 5 5 5 5 6 6 7 7 8 8 9 9 10 11 11 11 12 12 13 13 13 14 14 14 15 15 15 15 15 15 14 14 14 14 15 15 15 15 16 17 17 17 16 16 15 15 16 17 18 19 19 17 16 17 19 20 19 18 17 18 18 17 17 17 17 17 17 17 17 17 17 17 17 17 17 16 14
7 7 7 7 6 5 5 4 4 5 5 5 6 6 6 7 7 7 8 9 9 10 11 11 12 12 13 13 13 13 14 14 15 15 15 15 15 15 14 14 14 14 14 15 15 15 15 15 15 14 14 14 14 14 15 16 17 18 18 16 15 16 17 18 17 17 17 17 17 17 17 16 16 17 16 16 17 17 17 16 16 17 16 15 14
7 7 7 6 6 5 4 4 4 4 5 5 5 5 6 6 6 7 7 8 9 9 10 11 11 12 12 13 13 14 14 14 15 15 15 16 16 16 15 15 15 15 15 15 14 14 14 14 14 14 13 13 13 13 14 15 16 17 16 15 15 15 16 16 17 17 17 17 17 17 17 16 16 16 16 16 16 17 16 16 16 16 15 14 14
6 6 6 6 5 4 4 4 4 4 4 4 4 4 5 6 7 7 8 9 9 10 10 10 11 11 11 12 12 13 14 14 15 15 15 15 15 15 15 15 15 15 15 14 13 13 14 14 13 14 13 13 14 14 14 15 15 16 15 14 14 14 15 15 16 17 17 16 16 16 16 16 16 16 16 16 16 16 16 16 16 15 15 14 14
6 6 6 5 5 4 4 4 4 4 4 4 4 4 4 5 6 7 8 9 9 10 10 10 11 11 11 11 12 12 13 13 14 14 15 15 15 15 15 15 15 14 14 13 12 13 14 14 14 14 14 13 14 14 14 15 15 15 15 14 14 14 14 15 16 17 16 16 16 16 16 16 16 16 16 16 16 16 16 15 15 15 14 14 14
6 6 5 5 4 4 4 4 3 3 3 3 3 3 4 4 5 6 7 8 8 9 9 9 10 11 11 11 11 11 12 12 13 13 14 15 15 15 16 16 15 14 13 12 12 13 14 14 14 14 14 14 14 14 15 15 15 15 15 15 15 14 14 14 15 16 16 15 15 15 16 16 16 16 16 16 16 16 15 15 15 15 14 14 14
6 5 5 4 4 4 4 4 3 3 3 3 3 3 3 3 4 5 5 6 6 7 7 7 8 9 9 10 10 10 11 11 12 13 14 14 15 16 16 14 13 12 12 12 12 13 14 14 14 14 14 15 15 15 15 15 15 15 15 16 15 15 14 14 14 15 15 15 15 15 16 16 16 16 16 15 15 15 15 15 15 15 14 14 14
6 5 5 4 4 4 4 3 3 3 2 2 2 3 3 3 3 3 4 4 4 5 5 5 6 7 7 8 9 9 10 11 12 13 14 15 16 16 14 11 10 11 11 12 12 13 14 14 14 14 15 15 15 15 15 15 15 15 15 14 14 14 14 14 14 14 15 15 15 15 15 15 15 16 15 15 15 14 14 14 14 14 14 14 14
5 5 4 4 3 3 3 3 3 3 2 2 2 2 2 2 2 3 3 4 4 4 4 4 4 6 8 9 9 9 10 11 11 11 12 14 15 13 11 10 10 10 10 11 12 13 13 14 14 14 14 14 14 14 14 14 14 14 14 14 14 14 14 13 14 14 14 14 14 14 15 15 15 15 14 14 14 14 14 14 14 14 14 13 13
5 5 4 4 3 3 3 3 3 3 2 2 2 2 2 2 2 2 2 3 3 3 4 4 3 4 7 8 8 8 9 10 11 10 10 11 11 11 10 10 10 10 10 11 12 13 13 14 14 14 14 14 14 14 14 15 15 15 15 16 16 16 15 15 15 15 15 15 15 14 14 15 15 14 14 14 14 14 14 14 13 13 13 13 12
5 5 4 4 3 3 3 3 3 3 2 2 2 2 2 2 2 2 2 2 2 2 3 3 3 2 3 5 7 8 9 9 10 10 10 11 10 11 11 11 11 11 11 12 13 13 14 13 13 13 14 14 14 14 14 14 15 16 16 16 16 16 16 15 15 14 14 14 14 14 14 14 14 14 14 14 13 13 13 13 13 12 12 12 12
6 5 5 4 4 3 3 3 3 2 2 2 2 1 1 1 1 1 1 2 2 2 2 2 2 2 2 2 4 6 6 7 7 8 8 9 9 10 11 11 11 11 11 11 12 12 12 12 12 13 13 13 13 13 13 13 14 14 14 14 14 14 14 14 14 13 13 13 13 13 13 13 13 13 13 13 13 13 13 13 12 12 12 11 11
6 5 5 5 4 4 3 3 3 2 2 2 2 1 1 1 1 1 1 1 1 1 2 2 2 1 1 2 3 4 4 4 4 5 5 6 6 7 8 8 9 9 9 9 9 9 9 9 9 9 10 10 10 11 12 12 12 13 13 13 12 12 12 12 12 12 12 12 12 12 12 12 12 12 12 12 12 12 12 12 12 12 12 11 11
6 5 5 5 4 4 3 3 3 2 2 2 2 1 1 1 1 1 1 1 1 1 1 1 1 1 1 1 2 3 3 3 3 3 3 3 3 4 4 5 6 6 6 6 6 6 7 7 7 7 7 8 8 9 9 10 11 11 11 11 11 10 10 11 11 11 11 11 11 11 11 11 11 11 11 11 11 11 11 11 11 11 11 11 11
6 6 5 5 5 4 4 3 3 3 2 2 2 1 1 1 1 1 1 0 0 0 0 0 1 1 1 1 1 2 2 2 2 2 2 2 2 2 2 2 3 4 4 4 4 4 4 4 5 6 7 7 8 8 9 9 9 10 10 10 10 9 9 9 9 9 10 10 10 10 10 10 10 10 10 10 10 10 10 10 10 10 10 9 9
6 6 5 5 5 5 4 4 3 3 2 2 2 2 1 1 1 1 1 0 0 0 0 0 0 0 0 1 1 1 1 1 1 1 1 1 1 1 1 1 1 2 2 2 2 3 3 3 3 4 5 5 6 7 8 8 8 9 9 8 8 8 8 8 8 8 8 9 9 9 9 9 9 9 9 9 9 9 9 9 9 9 9 8 9
6 6 6 6 5 5 5 4 4 3 3 3 2 2 2 1 1 1 0 0 0 0 -0 -0 -0 -0 -0 -0 0 0 0 0 0 1 1 0 0 0 0 0 1 1 1 1 1 2 2 2 2 2 3 4 5 5 6 6 7 8 8 8 8 8 7 7 7 7 7 7 8 8 8 8 8 8 8 8 8 8 8 8 8 8 8 8 7
7 6 6 6 6 5 5 5 4 4 3 3 2 2 2 1 1 1 0 0 0 -0 -0 -0 -0 -0 -1 -1 -0 -0 -0 -0 -0 -0 -0 -0 -0 -0 -1 -1 -1 -0 0 0 1 1 1 2 2 2 2 3 3 4 4 4 5 6 7 7 7 6 6 6 6 6 6 7 7 7 7 7 7 7 7 7 7 7 7 7 7 7 7 7 6
7 6 6 6 6 6 5 5 5 4 4 3 2 2 2 1 1 1 0 0 -0 -0 -0 -0 -1 -1 -1 -1 -1 -1 -1 -1 -1 -1 -1 -1 -1 -1 -1 -1 -1 -1 -1 -0 0 1 1 1 2 2 2 2 2 3 3 3 4 5 5 5 5 5 5 6 6 7 7 7 7 6 6 6 6 6 6 6 6 6 6 6 6 6 6 6 5
7 7 6 6 6 6 5 5 5 4 4 3 3 2 2 2 1 1 1 0 -0 -0 -0 -1 -1 -1 -1 -1 -1 -1 -1 -1 -1 -1 -1 -1 -1 -1 -1 -1 -1 -1 -1 -0 0 1 1 1 1 1 1 2 2 2 3 3 3 4 4 4 4 5 5 6 6 6 6 6 6 6 6 6 6 5 5 5 5 5 5 5 5 5 5 5 5
7 7 7 7 6 6 6 5 5 5 4 4 3 2 2 2 1 1 1 0 0 -0 -1 -1 -1 -1 -1 -1 -1 -1 -1 -1 -1 -1 -1 -1 -2 -2 -1 -2 -2 -2 -1 -1 -0 1 1 1 1 1 2 2 2 2 3 3 3 4 4 4 4 4 5 5 6 6 6 6 6 6 6 6 5 5 4 4 4 4 4 4 4 4 4 4 4
7 7 7 7 7 6 6 6 5 5 5 4 4 3 2 2 2 1 1 1 0 0 -0 -1 -1 -1 -1 -2 -2 -2 -2 -2 -2 -2 -2 -2 -2 -2 -2 -2 -1 -1 -0 -0 -0 0 1 1 2 2 2 2 3 3 3 3 3 4 4 4 4 4 5 5 5 5 6 6 6 6 5 5 5 5 4 4 4 4 4 4 4 4 4 4 4
7 7 7 7 6 6 6 6 5 5 5 5 4 4 3 2 2 2 1 1 1 0 -0 -0 -1 -1 -1 -2 -2 -2 -2 -2 -2 -2 -2 -2 -2 -2 -2 -2 -1 -1 -0 0 1 1 1 2 2 2 2 3 3 3 3 3 3 3 4 4 4 4 5 5 5 5 5 6 6 5 5 5 5 4 4 4 4 4 4 4 4 4 4 4 4
7 7 7 6 6 6 6 6 5 5 5 5 5 4 3 3 2 2 1 1 1 0 0 -0 -1 -1 -1 -1 -2 -2 -2 -2 -2 -3 -3 -3 -3 -3 -3 -3 -3 -2 -2 -1 -0 0 1 1 2 2 2 2 2 2 2 3 3 3 4 4 4 5 5 5 5 5 5 5 5 5 5 5 4 4 4 4 4 4 4 4 4 4 4 4 4
Height
778 779 779 778 778 779 780 781 782 782 784 784 783 782 784 786 787 790 792 793 794 794 794 794 793 791 791 794 798 801 803 806 808 808 807 808 813 820 822 820 817 816 816 816 815 816 816 816 816 816 818 819 820 822 823 825 827 827 827 828 827 828 828 828 827 826 826 827 828 828 829 830 831 833 834 836 838 840 841 842 844 845 846 847 848
779 778 778 778 777 777 778 779 780 781 782 783 783 782 783 784 786 787 788 789 791 791 790 789 787 786 787 791 794 797 798 800 801 803 803 802 805 812 819 821 818 815 814 814 812 813 813 813 813 813 815 816 816 818 820 821 823 824 825 825 825 826 826 826 826 825 825 826 826 827 828 828 829 830 832 834 836 838 839 840 842 843 844 846 847
779 778 777 777 776 776 777 777 778 778 779 780 780 780 781 782 784 785 786 786 787 787 787 787 785 783 785 788 791 793 795 796 795 795 796 797 800 803 809 815 818 817 814 811 811 811 811 810 810 810 812 812 813 814 816 818 820 821 822 823 823 823 824 825 825 824 824 824 825 825 826 826 827 829 830 832 834 836 837 838 840 841 842 844 845
779 778 776 776 775 775 775 775 775 775 776 776 777 777 778 779 781 783 784 784 784 784 784 785 785 784 784 786 788 790 792 793 792 789 788 791 795 798 800 804 811 815 816 813 810 810 810 808 807 807 809 809 809 811 812 814 816 817 818 820 820 821 822 823 823 823 823 823 823 824 824 825 826 827 829 831 833 834 836 837 838 839 841 842 843
778 777 776 775 774 774 774 774 774 774 774 774 775 775 776 777 779 780 780 780 780 781 781 783 784 784 784 785 785 787 789 792 791 786 783 785 789 793 795 797 800 806 811 813 812 810 808 806 804 805 807 807 806 806 808 810 812 813 815 816 817 819 821 821 821 822 822 821 822 822 823 824 825 826 827 829 831 833 835 836 837 838 840 841 842
778 777 776 775 774 774 774 774 774 773 773 773 774 774 775 776 776 776 776 776 776 777 778 779 780 781 782 783 783 783 785 789 790 786 783 782 785 788 791 793 795 797 800 805 809 811 808 805 804 804 804 803 802 803 804 806 808 809 811 812 815 817 818 819 819 819 819 819 820 820 820 821 822 823 824 826 828 830 832 834 836 837 838 839 840
778 777 777 776 775 774 774 774 774 773 773 773 773 773 773 774 774 773 774 773 773 774 774 775 776 777 778 779 780 781 782 784 786 786 785 783 783 785 787 789 791 792 793 795 799 805 807 805 803 803 801 799 798 799 801 803 804 806 807 810 812 814 815 816 817 817 817 818 818 817 817 817 818 820 822 824 826 827 828 830 832 834 835 836 837
779 778 777 776 775 774 774 773 773 773 773 772 772 771 770 770 770 770 771 771 771 771 771 771 771 772 773 774 775 777 778 779 780 781 782 782 782 782 783 784 786 788 789 789 790 794 800 803 803 801 800 797 795 796 798 800 802 803 804 807 809 810 812 813 814 814 814 815 815 815 815 815 816 818 820 822 823 823 824 826 828 829 831 833 834
779 778 777 776 775 774 773 773 772 771 771 770 769 768 767 767 767 767 767 767 767 768 768 768 768 768 768 769 770 771 772 774 775 776 777 777 778 779 779 780 781 782 784 786 786 787 791 797 800 800 798 796 794 794 795 797 799 800 801 803 805 807 809 810 810 811 811 812 812 813 813 812 812 814 815 816 817 819 822 824 826 827 829 830 831
779 778 777 776 775 773 772 772 770 770 769 768 767 766 765 764 764 764 764 764 764 765 765 765 765 765 766 766 766 766 767 768 769 771 772 772 773 775 776 777 778 779 780 782 783 783 784 788 793 796 796 795 794 793 793 794 795 797 798 799 800 801 804 806 806 806 807 808 809 810 809 808 808 809 810 811 814 818 821 823 824 826 828 829 829
778 777 776 775 774 773 771 770 769 768 767 766 765 763 762 762 762 763 763 763 763 762 762 762 761 761 762 762 762 762 761 762 763 765 766 767 767 769 770 772 773 774 776 777 778 779 780 782 786 791 794 794 792 791 791 791 792 794 795 795 795 795 797 799 801 802 803 804 804 805 804 803 803 805 807 809 813 815 817 819 822 824 826 826 825
776 775 774 773 772 771 770 769 767 766 765 764 763 761 760 759 759 760 761 761 761 760 759 759 758 758 758 758 758 757 757 757 757 758 759 760 762 763 764 766 768 769 770 772 773 774 775 776 779 783 787 790 790 789 789 789 789 791 791 791 791 791 792 793 794 796 798 799 800 800 798 798 800 802 803 806 808 811 814 817 819 820 821 822 822
774 773 772 771 770 769 768 767 766 765 763 762 761 760 759 758 757 757 758 758 758 757 756 755 754 754 754 753 753 753 752 752 752 752 753 754 756 758 759 761 763 763 764 766 767 768 768 769 771 774 778 783 786 788 786 786 787 787 788 788 787 787 787 788 788 790 792 793 794 793 792 794 796 797 799 801 804 808 811 813 815 817 818 818 816
772 771 770 769 768 767 766 765 764 763 762 761 760 759 758 757 756 755 755 755 754 754 753 752 750 750 749 749 748 747 747 747 747 747 748 749 751 752 754 756 756 757 759 760 761 763 763 762 764 767 770 773 779 783 783 783 783 783 783 783 782 782 782 783 783 785 786 787 787 785 786 789 791 793 796 798 799 802 804 807 809 811 811 811 810
771 770 768 767 766 765 764 763 762 761 760 759 758 757 756 755 754 753 752 752 751 750 749 748 746 745 744 744 743 742 741 742 742 743 744 745 746 747 748 749 750 751 752 754 756 757 756 756 759 762 764 766 771 776 779 780 779 778 777 776 776 777 777 776 777 779 780 781 780 780 782 785 788 790 792 793 794 796 798 801 803 805 807 808 809
770 768 767 765 764 763 762 760 759 758 757 757 756 755 754 753 752 751 749 748 747 747 746 744 742 741 739 738 737 736 735 736 738 739 740 741 742 742 742 743 744 746 747 749 751 752 751 753 756 759 760 761 765 769 773 775 775 772 771 771 772 773 772 770 771 774 775 776 776 777 779 782 785 787 788 789 790 793 796 799 800 803 806 807 808
769 767 765 763 762 761 759 758 756 755 754 753 752 752 751 750 749 748 746 744 742 741 741 740 739 737 735 733 732 730 730 731 732 733 735 736 737 738 738 738 739 740 742 744 746 746 746 748 751 754 755 756 759 761 762 766 768 766 765 766 769 769 767 766 768 770 771 771 772 774 776 778 780 782 783 784 786 789 792 794 795 799 801 802 803
768 765 763 761 760 758 757 756 754 752 751 749 748 747 747 746 746 745 744 742 739 737 736 734 733 732 730 728 727 726 724 725 727 728 729 730 731 732 733 734 734 734 736 739 740 739 739 741 743 746 747 749 752 753 753 755 759 761 760 761 763 764 762 761 763 765 766 768 770 771 772 773 774 776 778 779 781 784 785 786 789 793 795 795 796
766 763 761 759 757 756 754 753 751 749 748 746 745 744 743 742 741 741 740 738 736 733 731 729 727 726 725 724 723 721 719 719 720 722 722 724 725 727 728 730 730 729 731 733 733 732 732 734 736 738 741 743 745 747 746 747 752 757 757 756 757 757 755 755 759 760 760 762 764 764 765 766 768 770 772 774 777 778 778 780 783 786 787 789 792
763 761 759 757 755 753 752 750 748 747 745 743 742 741 739 738 737 736 735 734 732 729 727 725 722 720 719 718 717 716 715 714 714 715 716 717 718 720 722 724 724 724 725 726 726 726 726 728 730 732 734 736 737 740 740 740 745 752 755 753 751 749 747 750 753 755 756 757 758 759 760 762 764 766 768 770 772 772 773 775 777 779 781 784 787
761 759 757 755 753 751 749 747 746 743 742 740 738 737 736 734 733 731 730 728 726 724 722 720 717 714 713 712 711 710 709 708 708 709 710 710 711 713 715 716 717 718 719 719 720 720 720 720 722 724 726 728 731 733 735 735 738 743 749 751 747 742 742 746 750 752 754 756 757 758 759 760 762 763 764 766 767 768 769 771 773 775 777 779 781
760 758 755 753 751 748 746 745 743 741 739 737 735 733 732 730 728 726 724 722 720 718 716 714 712 709 708 706 704 703 704 703 703 703 703 704 705 706 706 708 711 713 713 713 713 713 713 714 715 717 720 722 725 728 729 729 729 731 736 743 743 739 739 742 745 748 751 753 755 756 758 758 759 760 761 763 764 765 767 768 770 772 772 773 775
759 756 753 751 749 746 744 742 740 738 736 734 732 730 727 725 724 721 719 716 714 711 710 708 707 704 702 700 699 698 698 698 698 697 697 698 699 699 699 701 704 706 707 706 706 706 707 708 710 712 715 717 719 721 721 722 722 723 725 730 733 735 736 739 742 745 747 749 750 751 752 754 755 757 758 760 761 763 765 766 767 768 768 769 770
758 755 752 748 745 743 740 738 736 734 732 730 728 725 722 720 718 715 712 710 708 705 704 703 701 698 696 694 692 692 692 692 692 692 692 692 692 692 693 694 697 699 700 700 699 700 701 703 704 706 709 710 712 714 715 716 717 719 721 724 729 733 735 739 744 745 745 744 744 744 745 748 749 752 754 756 759 761 762 763 764 764 765 766 767
756 754 750 747 744 740 737 734 731 728 726 725 722 719 717 715 712 709 706 704 701 699 698 697 695 692 690 688 686 685 686 686 686 686 686 687 686 686 687 688 690 692 693 693 694 694 695 697 699 700 702 704 707 709 710 709 710 712 716 721 726 730 732 735 740 741 739 739 738 738 739 741 743 746 748 752 755 757 757 759 760 761 762 763 764
754 752 748 745 743 739 735 730 726 723 721 719 717 714 711 709 706 703 701 698 696 693 692 691 689 687 684 682 680 680 680 680 679 679 680 680 680 680 681 682 684 685 686 687 688 690 691 693 695 696 696 698 701 703 703 703 703 705 707 712 717 722 726 730 732 733 733 733 732 732 733 734 737 740 744 747 749 751 753 754 755 756 757 758 759
752 749 746 743 740 737 733 728 722 718 715 713 711 708 706 703 701 698 695 692 689 688 686 685 683 681 679 677 675 675 674 673 673 673 674 674 674 674 675 677 679 680 681 681 683 686 688 690 691 691 691 692 695 696 696 696 697 698 700 703 708 713 717 720 723 724 725 726 726 726 728 730 733 736 739 742 744 745 747 749 750 750 751 753 755
751 748 744 741 738 735 731 727 722 717 713 710 708 704 701 699 695 692 689 687 683 681 680 679 677 676 674 673 671 670 668 667 667 668 670 670 670 670 671 671 673 674 675 675 678 681 684 686 687 688 688 688 689 690 691 691 690 690 693 695 699 703 707 711 714 716 718 719 720 722 724 726 728 731 733 736 738 740 742 743 744 744 746 748 749
752 748 744 741 738 735 731 727 723 719 714 710 706 702 699 696 693 687 683 680 678 676 674 673 672 672 670 668 666 665 662 661 662 664 666 666 665 665 665 665 666 668 669 671 674 678 681 682 683 683 683 683 683 684 684 684 684 683 684 686 690 695 699 703 706 709 711 713 714 716 718 720 723 726 729 730 732 734 736 738 739 740 742 744 744
751 748 745 742 738 735 731 728 724 720 716 711 706 700 694 690 689 684 677 672 670 670 669 667 667 667 666 663 661 660 657 657 658 660 660 660 660 660 660 660 661 663 664 667 671 674 675 676 677 678 678 678 677 677 677 678 677 677 677 679 682 685 689 693 696 699 702 705 707 709 711 714 717 720 722 724 726 729 731 733 734 736 738 739 739
751 748 745 742 739 735 732 728 724 720 716 712 707 701 692 683 678 676 672 666 662 662 662 661 661 661 661 659 657 656 654 653 654 655 655 655 656 656 656 657 657 659 661 664 667 669 669 669 670 671 671 672 671 671 671 672 671 671 672 674 675 677 680 683 686 689 692 696 699 702 704 707 710 713 715 718 721 723 726 728 730 731 733 733 734
751 748 745 742 738 735 731 728 724 719 715 711 706 701 695 685 674 667 664 661 658 657 656 654 653 653 653 652 651 650 649 648 649 650 649 650 650 651 653 654 655 656 659 661 662 663 663 662 662 663 664 665 665 666 667 668 668 668 670 672 673 673 674 674 675 679 683 686 689 693 697 700 703 706 709 712 716 719 722 724 725 726 727 728 729
751 748 744 741 737 734 730 726 723 718 714 710 705 699 695 689 680 671 664 659 655 654 652 650 648 646 645 644 643 641 641 642 643 644 643 643 644 646 647 648 649 652 654 655 656 656 656 656 656 657 659 659 660 662 664 665 666 667 668 669 670 671 672 673 674 675 678 682 684 687 689 693 697 701 705 709 713 715 718 719 720 722 723 723 723
751 748 745 741 736 733 729 725 722 718 714 710 704 699 694 690 685 680 672 663 656 652 649 647 644 642 640 637 635 634 633 634 635 636 636 636 638 640 641 642 644 646 648 650 650 650 650 651 652 654 655 656 656 658 660 661 663 665 667 667 668 669 671 673 675 674 675 679 683 685 685 686 691 696 701 705 708 711 713 715 716 717 718 718 719
749 747 744 740 737 733 729 726 722 718 714 709 704 700 695 691 686 683 679 671 664 658 652 647 643 640 637 633 630 628 627 626 626 627 629 630 631 633 636 638 639 640 641 643 644 644 645 647 648 650 652 652 653 654 656 658 660 662 664 667 669 670 670 671 672 672 673 676 679 682 683 684 688 693 697 699 702 706 709 711 713 713 713 714 715
748 745 743 740 737 733 730 726 722 719 715 711 706 701 696 691 688 684 680 674 668 663 656 649 643 637 633 630 628 624 621 619 620 621 623 625 627 629 631 633 634 635 636 638 640 642 643 644 645 647 649 649 651 653 656 657 657 658 660 662 665 668 671 672 673 673 674 676 678 681 683 686 689 692 695 696 698 700 704 707 708 709 709 710 711
747 745 742 739 736 733 729 726 723 720 716 711 706 701 695 691 688 684 679 674 668 663 658 651 643 637 631 628 625 621 617 615 615 617 619 622 624 626 628 629 630 631 633 635 637 639 641 642 644 645 646 646 649 652 654 655 654 653 654 657 659 661 665 669 672 673 675 677 679 681 683 685 688 690 692 694 695 697 699 702 703 704 705 706 707
747 745 743 740 737 734 730 727 723 720 716 711 706 701 696 692 688 683 678 674 669 665 660 653 648 644 639 634 628 623 619 615 615 617 618 620 622 624 624 624 626 627 629 632 635 637 639 641 642 644 645 645 647 649 652 653 652 652 652 654 656 658 660 664 668 672 675 676 677 679 681 683 686 688 689 691 693 694 696 698 699 700 701 702 703
747 745 743 740 737 734 731 728 724 720 716 712 707 702 698 694 689 685 680 676 671 667 663 659 656 653 650 644 637 631 626 623 622 623 622 621 622 623 622 621 622 624 627 629 632 636 639 641 642 643 644 645 645 647 650 652 652 651 651 653 654 656 659 662 666 669 672 673 675 677 679 682 684 686 687 689 691 692 694 695 696 697 698 699 700
747 745 743 740 737 735 732 729 725 722 717 713 709 705 702 698 694 689 685 681 676 672 668 666 663 660 657 652 646 640 637 634 633 631 629 627 627 627 625 623 623 624 626 629 633 636 639 641 642 643 645 645 646 647 650 652 650 650 651 653 655 656 659 662 664 667 669 672 674 677 679 682 684 685 687 688 690 691 693 693 694 695 696 697 697
747 745 743 740 738 735 733 730 727 723 720 716 712 709 705 702 698 694 690 686 682 678 674 672 670 666 663 659 653 649 647 646 643 639 636 635 634 632 631 628 627 628 630 633 636 638 640 641 644 646 646 647 647 649 651 652 650 649 651 654 656 658 660 662 664 667 670 672 675 677 679 681 683 684 686 688 689 690 691 692 693 693 694 694 694
747 745 743 741 738 736 734 731 728 725 722 719 715 712 709 705 701 698 694 690 686 683 680 677 674 670 666 663 658 655 654 653 649 644 642 641 639 638 636 634 634 635 637 639 641 643 644 644 646 647 648 648 649 649 650 651 652 651 652 655 658 661 663 665 667 669 671 672 674 676 678 680 681 683 685 686 687 688 689 689 690 690 690 690 690
747 745 743 741 739 737 734 732 730 727 724 721 718 715 712 709 705 701 698 694 691 688 685 682 679 675 671 668 663 660 658 656 653 650 648 647 646 645 644 644 643 643 644 645 646 648 648 648 648 649 649 650 651 650 649 651 652 653 655 657 660 662 664 666 667 668 670 671 672 674 676 677 679 681 682 684 684 685 686 686 686 687 687 686 685
747 745 743 741 739 737 735 732 730 728 725 723 721 718 715 712 708 705 702 699 695 692 690 687 683 680 677 673 669 666 665 663 661 659 657 656 655 654 652 651 650 649 649 650 651 651 652 652 653 652 652 652 653 652 651 651 652 653 655 658 660 662 663 665 666 667 668 670 671 672 674 675 677 678 679 681 681 682 682 683 683 683 684 683 683
746 745 743 741 739 737 735 733 731 729 726 724 721 719 717 714 711 709 706 703 700 697 694 691 688 686 683 679 676 675 674 672 670 668 666 665 664 662 660 658 656 655 654 654 655 654 654 654 655 654 654 655 656 656 655 654 653 654 656 659 661 663 664 666 666 667 668 669 670 671 672 673 675 676 677 678 679 679 680 681 682 682 682 682 682
745 744 743 741 739 738 735 733 731 729 727 725 723 720 718 716 714 712 709 707 704 702 699 696 694 691 688 685 684 682 681 679 677 675 673 671 670 669 667 665 663 661 660 659 658 657 656 656 657 657 658 659 660 659 658 657 657 658 660 662 664 665 666 666 667 668 669 670 671 672 672 673 674 675 676 677 678 679 679 680 680 680 680 680 680
744 743 742 741 739 738 736 734 732 730 728 726 724 722 720 718 716 714 712 709 707 705 703 700 698 696 693 691 689 687 686 684 682 680 679 677 676 675 674 671 669 667 666 665 663 662 661 661 661 662 662 663 663 662 662 662 662 663 665 666 667 668 668 669 670 671 672 673 673 673 674 674 675 676 676 677 678 678 678 679 679 679 679 679 678
743 742 741 740 738 737 736 734 732 731 729 727 725 724 722 720 718 716 714 712 710 708 706 704 702 700 698 696 694 692 690 688 686 684 683 682 681 680 678 676 674 673 671 670 669 668 667 667 667 667 667 667 666 666 666 666 667 668 669 670 670 671 672 673 673 674 674 674 675 675 675 675 675 676 676 676 676 677 677 677 677 677 677 677 677
742 741 740 739 738 737 735 734 732 731 729 728 726 725 723 721 719 718 716 714 713 711 710 708 706 704 702 701 699 697 695 693 691 689 688 686 685 684 682 680 678 677 675 674 673 673 672 672 671 671 670 670 669 670 670 671 671 672 672 673 674 674 675 675 675 675 675 675 675 676 676 676 676 676 676 676 676 676 676 676 676 676 676 675 675
741 740 739 738 737 736 735 734 732 731 729 728 727 725 724 722 721 719 718 716 715 713 712 711 709 708 706 704 703 701 699 697 696 694 692 691 689 687 686 684 682 680 679 678 677 677 676 675 675 674 674 673 673 674 674 674 675 675 676 676 677 677 677 677 677 677 677 676 676 676 677 677 677 677 677 677 676 676 676 676 675 675 675 675 675
740 738 738 737 736 735 734 733 731 730 729 728 727 725 724 723 722 720 719 717 716 715 713 712 711 709 708 707 706 704 703 701 700 698 696 694 693 691 689 687 686 685 684 682 681 681 680 679 678 678 677 677 677 677 677 677 677 678 678 678 678 678 678 678 678 678 678 677 677 677 677 677 678 678 678 678 677 677 676 676 675 675 675 675 675
Wind_Speed
13 16 16 16 18 21 24 26 27 29 29 26 23 24 27 31 35 38 38 37 37 36 35 34 32 29 30 34 38 41 42 40 39 38 34 30 29 30 31 33 36 36 36 36 38 38 38 38 39 39 37 36 36 36 35 34 33 33 32 32 32 32 30 26 17 14 16 18 19 22 26 27 28 29 31 32 32 32 31 32 33 32 32 31 31
16 16 17 16 17 19 22 24 25 27 28 27 26 26 27 30 33 35 37 39 38 36 36 37 34 29 31 37 41 44 46 45 43 40 35 32 32 32 32 32 34 36 36 36 38 38 37 38 39 39 37 36 36 36 36 36 34 34 34 33 33 33 32 30 23 17 15 17 19 21 23 26 28 29 30 32 32 32 32 33 33 33 33 32 32
22 19 18 18 18 19 19 20 21 22 24 25 26 27 28 30 30 30 33 36 36 35 36 38 37 34 35 41 45 46 47 46 44 40 36 34 34 34 35 33 33 34 36 38 39 38 37 38 39 39 37 36 36 36 36 36 36 35 36 35 34 33 33 32 27 20 17 17 19 21 23 26 28 29 30 31 31 31 32 33 34 34 33 33 33
25 24 22 19 18 18 19 19 19 20 21 23 24 26 28 30 30 31 32 32 32 33 34 35 35 35 38 43 44 44 44 46 44 40 36 34 36 37 37 37 34 33 35 38 39 39 38 39 40 39 37 36 37 36 36 35 36 36 36 36 36 34 33 32 30 25 20 17 18 20 23 25 27 28 29 29 30 31 32 33 33 34 34 34 34
27 26 25 23 20 18 17 18 19 20 21 23 24 25 28 30 32 33 34 34 33 33 33 33 33 32 35 39 40 41 41 41 41 40 37 36 38 39 39 38 37 36 36 37 38 39 39 41 42 40 37 36 37 37 37 37 36 36 36 36 35 34 32 31 31 28 23 20 18 19 22 24 25 27 28 29 29 29 30 31 32 33 33 33 34
29 28 25 24 23 21 18 17 17 18 20 21 23 24 26 29 30 32 33 34 34 33 34 35 35 33 33 35 36 37 37 36 35 35 36 38 40 40 40 39 39 39 39 39 38 39 40 42 43 40 38 39 39 38 38 38 37 36 36 36 34 32 31 31 30 29 27 24 20 19 22 25 26 26 28 29 30 29 29 30 31 31 31 32 33
29 28 26 25 23 21 20 18 17 16 18 19 21 22 24 25 26 28 29 31 32 33 34 35 36 35 35 35 35 35 36 36 34 33 33 36 39 41 41 41 40 40 41 42 41 41 41 43 42 41 40 42 42 39 37 37 38 37 37 35 32 31 31 31 31 30 28 25 22 21 22 25 27 26 27 28 29 29 30 29 28 29 30 31 33
28 27 26 25 23 21 21 20 19 17 17 17 19 20 21 22 23 24 26 28 31 32 33 34 34 35 36 36 36 37 37 37 37 37 36 36 38 40 41 42 42 41 41 43 44 42 41 42 43 43 43 44 45 42 39 38 37 37 36 34 32 32 31 31 31 30 28 26 24 22 21 23 25 24 23 25 27 28 30 30 29 30 31 32 33
26 26 25 25 24 23 21 20 19 18 18 18 19 19 20 20 21 22 24 26 28 30 32 33 33 34 35 37 37 38 38 38 39 39 40 39 37 38 39 40 41 41 41 42 43 42 41 41 43 45 46 47 46 44 42 40 38 36 36 34 33 32 32 32 31 30 28 26 23 21 20 22 24 24 24 28 30 29 29 29 28 28 29 30 31
24 24 24 24 25 24 23 21 19 19 19 19 20 21 21 21 20 21 23 26 28 29 31 32 33 34 35 35 36 36 37 38 39 40 41 40 38 37 37 38 38 38 39 38 39 40 40 41 43 45 47 48 47 46 44 44 42 40 38 37 36 35 33 32 32 31 29 26 24 23 21 22 26 28 29 30 30 27 26 27 27 25 23 24 25
23 23 23 24 24 24 23 22 21 21 22 21 22 22 23 23 21 20 21 23 27 29 31 32 34 35 35 36 36 36 37 38 40 41 42 42 41 39 40 40 40 39 38 38 38 39 39 39 41 44 46 47 48 48 47 47 46 43 41 40 39 39 38 35 33 32 30 27 26 26 26 25 27 29 29 27 27 27 27 28 28 24 22 21 19
22 23 24 24 24 24 24 23 23 23 22 22 23 24 24 25 24 23 21 21 24 26 29 31 33 34 35 36 37 38 39 41 41 40 41 42 42 42 42 41 41 41 41 41 42 42 39 38 39 42 45 46 46 47 47 48 47 46 44 44 43 42 42 41 38 36 34 31 28 29 31 30 27 28 29 28 28 28 28 27 28 27 26 24 21
23 23 24 24 24 24 23 22 21 21 21 22 22 23 23 24 25 25 25 24 24 24 26 29 31 33 34 35 36 38 40 41 41 41 41 41 42 43 43 42 42 42 43 44 45 44 41 39 39 41 43 45 44 44 45 46 46 46 47 46 46 45 44 45 45 42 40 37 34 35 37 34 30 30 31 31 30 28 28 28 29 29 28 28 31
23 23 23 24 24 23 22 22 22 22 23 23 24 24 24 25 26 26 27 27 26 26 27 28 30 32 33 34 36 37 39 40 41 41 41 41 42 44 45 44 44 44 45 45 46 45 43 41 41 42 44 44 43 43 43 43 43 46 47 48 48 47 47 48 48 47 46 43 41 42 41 38 35 34 33 32 32 31 32 32 32 33 34 35 37
23 23 23 24 24 24 24 25 25 24 24 24 24 25 25 26 27 28 28 28 28 28 29 30 31 31 33 34 36 37 38 39 40 41 43 43 44 46 47 46 45 45 46 46 47 48 45 42 42 44 45 44 42 41 41 41 42 45 47 49 49 48 48 50 51 50 49 48 47 45 42 38 37 35 33 33 34 35 35 35 36 35 35 34 31
22 23 24 24 25 25 26 26 26 26 25 25 24 24 25 26 27 29 29 30 30 30 30 31 32 32 33 34 35 37 38 40 40 41 43 45 46 47 48 47 45 44 45 45 46 46 43 40 40 43 44 44 41 41 42 43 43 44 44 45 46 46 48 52 52 51 50 50 49 46 42 40 38 36 34 33 33 33 33 33 32 30 27 25 24
21 22 23 24 25 26 26 26 27 27 26 25 25 25 25 26 27 27 29 30 31 31 31 31 32 33 34 35 35 36 38 40 41 42 44 46 47 48 47 45 44 44 44 45 43 40 38 38 39 40 43 44 43 46 48 46 45 45 42 41 42 42 46 49 48 49 52 51 50 48 45 42 41 38 36 34 33 32 32 31 29 27 26 21 19
21 22 24 25 25 25 25 25 26 27 27 27 28 28 27 27 26 26 27 29 31 33 32 32 33 33 34 36 37 37 38 40 40 42 44 47 48 48 45 42 42 43 43 42 40 39 39 41 42 42 43 45 48 52 52 49 46 44 41 40 38 39 45 47 43 45 49 50 49 48 46 44 42 40 37 36 34 33 34 34 31 30 29 24 21
22 23 24 25 26 25 25 25 25 26 28 29 29 30 30 29 28 28 28 29 31 33 33 33 34 34 34 35 37 38 40 41 41 42 44 46 48 48 45 41 39 40 40 38 38 40 43 45 45 44 44 46 50 54 53 48 43 42 43 40 35 38 46 47 41 41 44 46 49 49 47 45 43 39 37 35 34 34 36 36 34 33 32 29 26
25 25 26 26 26 25 25 25 26 27 28 30 31 31 30 30 30 30 30 30 30 32 33 34 34 35 35 35 36 38 40 41 43 44 45 46 47 47 45 40 39 40 39 36 37 40 43 45 47 47 48 50 53 55 53 45 37 38 43 39 35 42 50 46 41 42 42 43 47 48 47 45 42 40 38 36 34 36 37 37 37 37 34 31 29
26 26 27 27 26 26 26 26 27 28 29 29 30 30 30 31 31 31 31 31 31 32 33 34 34 35 35 36 36 38 40 42 43 44 46 47 48 47 45 41 41 41 39 37 38 39 41 44 47 49 51 53 55 55 53 46 37 35 41 42 42 50 51 42 37 39 38 37 39 40 40 41 40 39 39 37 37 38 37 37 38 38 37 35 31
26 26 27 27 26 26 27 27 27 28 28 28 28 29 30 31 32 32 32 32 32 32 32 32 33 33 34 35 37 38 38 40 43 45 46 47 47 48 47 45 44 44 40 38 39 40 42 45 47 50 52 53 54 54 54 52 46 40 41 45 50 54 49 37 33 34 33 33 32 32 34 36 36 37 38 38 38 38 37 38 38 38 40 40 38
27 26 26 26 26 26 26 26 26 27 27 27 28 29 30 31 31 31 31 32 32 32 31 31 31 31 32 34 36 38 38 38 40 43 45 46 47 48 49 48 47 47 43 40 41 42 44 46 47 50 51 52 53 54 55 55 53 46 43 48 53 50 40 30 25 26 29 30 30 31 33 34 34 35 36 35 35 35 35 36 38 39 41 42 42
26 26 26 26 26 26 27 28 29 29 28 27 27 28 29 29 29 30 30 30 30 29 29 28 28 29 30 32 35 38 39 39 39 41 43 45 46 48 49 49 49 49 48 45 44 44 45 47 49 51 52 52 54 54 52 51 50 46 43 45 45 36 27 25 25 25 27 29 31 32 33 34 34 35 35 34 33 32 34 36 37 39 41 41 42
26 26 26 25 24 27 30 31 31 30 28 27 27 27 27 27 27 27 28 28 28 27 26 27 27 27 28 29 32 34 37 38 39 40 42 44 46 48 49 49 50 51 51 50 48 46 46 50 52 52 51 52 52 50 47 47 46 42 37 37 38 32 27 31 34 32 31 32 32 32 33 34 35 35 34 33 32 32 33 33 33 35 37 38 39
27 26 25 23 23 27 31 32 32 31 28 27 26 27 27 27 26 26 26 26 26 26 26 26 27 27 27 29 30 32 34 36 38 39 41 43 45 46 48 49 50 52 54 54 51 47 46 49 51 50 50 51 50 48 47 46 47 43 36 35 39 37 31 32 36 36 34 33 33 34 35 36 35 34 33 32 32 33 32 31 30 31 33 35 35
28 27 25 23 24 28 30 32 33 32 30 28 28 29 29 29 28 27 26 26 25 25 25 26 26 25 26 27 29 30 31 32 33 35 36 39 41 42 43 45 48 50 52 53 51 46 45 48 49 50 48 47 47 47 47 45 45 43 38 34 36 39 37 38 42 42 39 38 38 38 37 35 32 31 32 32 33 34 33 30 29 29 30 31 31
28 27 25 24 25 28 30 30 30 29 29 29 30 31 31 31 30 29 27 27 26 25 25 25 26 26 26 26 26 26 28 30 31 30 30 31 34 35 37 41 45 47 49 50 49 45 43 44 44 42 40 39 39 40 40 42 43 43 40 36 37 40 42 44 46 44 42 41 38 35 32 30 29 29 31 32 33 33 31 30 30 30 29 27 27
26 25 24 23 25 29 30 28 26 25 26 28 30 32 33 32 32 33 34 32 30 29 28 27 28 28 28 29 27 25 25 29 32 32 31 32 34 34 36 39 43 46 49 51 48 41 36 35 35 33 32 33 34 34 35 38 41 42 40 38 38 41 43 44 45 44 43 40 36 32 31 30 30 31 31 30 31 32 31 29 30 31 29 25 25
25 24 23 23 25 29 28 26 24 23 24 25 29 33 36 36 34 34 36 37 36 34 34 34 34 32 31 32 31 30 30 32 33 31 30 32 35 37 39 41 43 46 50 52 45 37 32 31 30 30 31 30 30 32 34 36 37 38 39 38 41 44 45 47 47 47 45 42 38 35 34 32 31 31 31 30 29 29 29 29 30 30 29 26 26
23 23 22 23 26 28 26 25 24 23 23 23 25 28 33 37 38 35 32 31 31 33 34 36 38 39 39 39 38 37 37 37 35 33 30 29 32 35 38 41 42 44 47 44 37 32 31 29 28 30 31 30 29 31 32 33 34 35 34 34 37 42 45 48 50 49 46 43 40 37 36 34 32 30 29 29 28 27 27 28 29 30 30 29 27
23 23 23 24 26 26 24 24 24 24 24 24 24 25 27 31 36 39 38 31 25 25 29 32 36 38 40 43 43 42 42 42 41 40 39 39 39 38 38 39 41 43 44 38 33 32 31 29 28 30 29 29 30 31 30 29 31 31 29 28 31 37 42 47 51 50 46 44 42 39 36 34 32 30 28 27 26 25 25 26 28 29 30 29 28
22 23 25 26 27 25 23 23 24 24 25 26 26 26 26 25 27 33 36 35 31 26 25 26 32 36 38 41 44 46 47 47 45 44 45 45 44 42 42 43 41 40 40 35 31 31 31 29 28 29 29 29 30 29 28 28 29 28 28 29 31 35 38 39 41 42 41 39 38 38 37 34 31 28 27 27 28 28 28 27 27 27 26 25 26
21 22 25 27 26 24 23 24 24 25 26 26 26 25 26 26 25 25 27 29 30 30 29 28 25 26 29 33 37 41 45 48 48 49 48 45 43 45 45 41 36 34 35 35 32 31 31 29 28 28 28 29 30 29 28 28 29 28 29 31 34 36 35 33 33 36 37 35 33 35 36 35 32 30 29 29 29 29 28 28 27 25 23 23 24
23 23 25 27 25 23 23 24 24 25 26 27 26 25 25 25 25 24 22 22 23 25 27 29 29 24 20 22 26 32 39 45 49 52 52 48 47 45 38 29 25 28 33 35 34 32 30 28 27 28 28 29 29 29 27 26 25 24 22 20 20 23 26 28 30 32 33 32 31 31 30 30 31 33 33 32 30 28 27 28 27 26 25 24 24
24 24 26 27 26 24 23 23 24 26 26 26 25 24 24 24 23 23 22 21 22 22 23 27 33 31 23 18 20 25 33 41 45 48 49 47 43 36 28 24 23 26 31 32 30 28 27 25 25 26 25 22 20 21 22 23 22 21 19 16 12 12 15 18 19 20 21 24 26 26 26 27 30 31 30 29 28 27 28 28 28 28 27 26 25
23 24 27 28 26 25 25 24 25 26 26 26 25 24 25 25 24 23 23 23 24 24 24 27 34 36 33 29 27 23 24 31 35 37 37 35 30 25 24 23 21 23 26 25 20 17 17 17 18 18 18 17 17 18 21 23 24 23 23 22 19 16 15 14 13 14 18 22 25 25 25 26 28 28 26 26 26 27 27 28 27 28 29 28 27
21 22 25 27 26 25 25 25 26 26 25 26 26 26 26 25 25 25 25 25 25 25 25 27 32 36 38 38 35 25 13 5 6 10 13 15 18 21 23 23 22 23 24 23 18 13 12 12 13 13 14 17 19 17 16 19 21 22 22 20 17 16 15 13 13 15 17 19 20 20 21 22 22 22 22 23 24 25 25 26 26 26 26 26 25
21 20 23 26 26 25 25 25 25 25 26 26 26 27 26 26 26 26 26 26 27 27 27 28 30 34 37 39 37 31 25 23 21 16 13 13 11 11 14 17 19 19 19 18 15 14 14 14 15 15 15 15 16 14 13 14 17 19 20 19 17 15 13 12 11 10 9 8 8 9 11 14 15 17 19 21 23 24 25 26 26 25 25 25 25
20 19 21 24 25 25 25 25 25 25 26 26 26 26 25 26 26 26 26 26 26 26 27 28 30 32 36 38 37 32 28 26 25 25 24 25 23 21 21 21 23 24 25 24 22 21 21 20 20 20 20 20 20 20 19 20 22 22 21 21 21 20 18 16 14 12 10 9 7 6 4 3 4 6 9 12 15 17 19 20 21 22 23 24 25
18 18 19 21 22 23 24 25 24 24 25 25 26 25 24 24 24 25 25 25 24 25 27 28 29 31 35 36 36 33 29 26 26 28 29 29 28 28 29 28 28 29 28 27 26 26 26 27 27 26 26 27 27 27 26 26 27 27 26 24 22 21 20 18 16 14 12 10 8 7 5 3 2 1 2 4 7 9 11 12 15 16 18 21 23
16 16 17 19 20 21 23 24 23 24 24 24 25 26 25 24 24 24 24 25 25 25 26 26 27 30 34 36 36 35 32 29 29 31 32 32 32 32 32 32 31 30 28 26 26 26 26 29 30 29 29 29 29 28 28 28 27 27 26 24 22 20 19 17 15 13 11 10 8 7 5 4 3 2 3 5 6 8 9 10 12 14 15 17 18
12 13 15 17 18 18 20 21 22 23 24 23 24 25 25 24 24 24 23 24 25 25 24 25 27 30 32 34 36 36 35 33 32 32 33 33 33 32 32 32 33 31 29 28 28 28 28 30 31 30 30 29 28 28 28 27 26 25 25 23 21 20 18 16 14 13 11 9 8 6 5 5 4 4 4 5 7 8 10 10 12 14 14 16 17
9 10 12 15 16 16 18 20 20 21 22 22 23 24 24 24 24 24 23 23 23 24 24 25 26 28 29 31 34 35 34 32 31 30 30 30 29 28 29 30 31 31 31 30 30 31 31 31 31 31 31 30 28 28 29 27 26 25 24 22 22 20 19 17 16 14 12 10 9 8 7 6 6 6 7 8 9 10 11 12 14 15 15 16 17
6 7 9 12 14 15 16 17 18 19 20 21 22 22 23 23 23 23 23 23 22 23 23 24 25 27 28 29 30 30 30 29 29 28 28 27 26 25 26 29 30 31 31 31 30 31 32 32 32 33 33 31 30 29 29 28 28 26 25 23 23 22 20 18 16 15 13 12 11 9 8 8 7 8 8 9 10 11 12 13 14 15 16 16 16
5 5 6 8 10 12 14 15 16 17 18 18 19 20 21 21 22 22 22 22 22 22 22 22 23 25 27 27 27 26 26 26 27 27 27 27 26 24 25 27 29 30 30 31 31 32 33 33 33 33 32 31 30 30 30 29 28 26 25 23 22 21 20 18 17 16 15 14 12 11 9 8 7 7 7 8 8 9 10 10 11 12 14 15 16
5 5 5 5 6 9 12 13 15 15 15 15 16 17 18 19 20 21 21 22 22 22 21 22 22 23 24 24 24 25 25 25 26 26 27 26 25 24 24 26 28 30 30 30 31 32 32 32 32 32 32 31 30 30 30 28 27 26 24 22 21 20 18 17 16 15 14 13 12 11 10 9 8 6 6 5 5 6 7 8 9 10 10 12 13
4 5 5 4 4 6 8 10 12 14 13 12 13 15 16 16 17 18 19 20 21 21 21 21 21 22 22 22 22 22 22 23 24 25 25 25 25 24 24 25 26 28 29 30 30 31 31 31 31 31 31 31 30 30 29 28 27 25 23 21 20 19 17 16 15 14 12 12 11 11 11 10 9 8 7 6 5 5 6 7 7 8 8 9 10
5 4 4 4 4 5 6 6 7 10 11 10 10 12 14 15 15 16 15 16 17 18 18 19 19 20 20 20 20 20 20 21 21 22 22 22 22 23 23 24 26 27 28 28 28 29 29 29 29 30 30 29 29 28 28 27 26 24 23 21 19 18 18 17 16 15 13 12 11 10 10 10 10 9 7 7 7 6 6 6 6 6 7 8 8
6 5 5 5 5 6 6 5 4 5 7 8 7 8 10 11 12 13 13 13 13 14 14 15 16 16 17 17 18 18 18 19 18 18 19 19 20 20 21 22 23 25 26 27 27 26 27 27 27 27 27 27 26 26 25 24 24 23 22 20 19 19 19 19 18 17 16 14 13 12 10 10 10 9 9 8 8 8 7 7 6 7 7 7 7
7 7 6 5 5 5 5 5 4 4 4 5 6 5 6 6 8 9 10 10 10 10 11 11 12 13 13 14 15 15 16 16 16 16 16 17 17 18 19 19 19 21 23 24 25 25 25 25 25 26 26 25 25 24 23 22 21 20 19 18 18 17 17 17 17 17 17 16 16 15 13 12 11 10 10 10 10 10 9 8 8 8 8 8 8
Wind_Direction
282 269 262 257 253 250 249 250 249 245 243 240 232 229 231 233 235 236 237 239 239 236 237 239 238 236 238 236 233 230 230 229 229 230 227 228 238 248 247 239 233 232 231 231 229 229 229 230 231 232 231 230 231 232 232 233 234 235 235 233 229 226 223 219 222 241 243 240 239 236 233 229 226 227 226 225 228 229 230 231 232 232 231 229 227
320 300 285 274 268 262 257 258 259 254 251 250 248 245 243 243 242 240 240 241 240 238 239 242 243 242 240 237 232 230 230 229 227 228 228 228 231 239 248 248 242 235 232 232 231 230 229 230 231 232 231 230 230 231 233 233 233 233 234 233 230 227 226 223 223 231 237 235 233 232 233 228 225 225 225 224 226 228 228 229 230 232 233 232 229
344 334 315 293 282 277 269 265 264 261 258 257 257 256 255 252 248 245 244 244 244 244 246 247 246 241 237 233 230 229 230 229 225 223 226 230 231 232 237 244 248 245 238 234 233 231 230 230 232 232 230 230 230 231 233 232 231 232 232 233 232 231 230 228 226 229 231 232 229 226 226 225 224 225 226 227 228 228 228 228 229 230 232 234 233
345 345 340 325 307 295 289 285 280 275 271 268 266 267 267 264 258 254 253 253 252 251 251 249 244 237 232 229 227 228 230 229 225 223 225 229 231 233 233 234 240 247 246 242 238 234 232 232 232 232 230 230 230 229 230 231 230 230 231 233 233 233 233 232 231 232 232 230 227 225 225 225 225 225 225 225 226 228 229 229 229 230 232 233 235
343 342 343 341 331 314 303 298 292 288 284 280 276 272 269 266 262 259 258 259 258 257 254 250 244 238 233 230 229 229 231 231 228 226 226 228 230 232 233 231 231 237 244 247 245 240 236 235 235 232 230 230 230 228 228 229 230 230 230 232 232 233 233 235 235 235 234 232 228 223 222 223 223 223 223 221 221 225 228 228 228 229 232 234 235
344 342 340 342 339 329 316 306 298 293 289 285 281 275 267 261 259 258 257 256 256 256 255 251 248 244 240 238 236 233 233 235 236 232 228 226 228 230 232 231 231 232 235 240 246 246 242 240 239 235 231 230 231 229 227 228 229 229 230 230 231 231 231 234 235 234 234 234 231 221 216 218 218 218 221 221 219 220 223 225 227 228 230 232 235
342 341 337 335 337 337 332 322 311 302 293 287 282 277 269 262 258 259 259 257 255 254 252 249 249 248 247 246 244 241 239 238 240 239 234 228 227 228 230 231 232 233 233 233 238 245 247 245 243 239 235 233 233 231 228 228 228 228 229 229 228 228 227 230 232 232 232 232 230 223 217 217 217 216 219 221 221 221 221 219 220 224 226 230 233
338 338 335 330 329 331 334 331 326 320 311 302 292 285 279 273 269 267 263 259 257 256 253 250 250 251 251 249 247 245 243 240 239 238 237 233 230 228 228 230 231 233 234 234 234 237 243 247 247 243 240 237 235 232 229 229 228 228 228 227 225 224 224 225 227 228 228 227 226 223 218 215 214 213 215 214 214 219 220 217 217 220 222 226 231
333 333 331 329 327 327 328 329 328 325 322 318 311 303 296 290 283 278 271 265 263 261 258 255 253 251 249 248 246 243 240 239 238 236 235 233 232 231 229 229 230 232 233 236 236 235 238 244 248 247 244 242 240 236 233 232 230 228 227 223 220 220 220 221 222 222 222 223 224 221 216 213 209 205 207 209 211 216 218 217 220 223 222 224 229
332 331 328 328 328 326 326 326 326 324 323 322 319 315 311 305 296 286 279 273 269 265 261 257 252 249 247 245 244 241 238 238 238 238 236 233 232 233 234 232 231 232 233 235 237 237 237 240 246 249 248 246 244 241 238 235 233 232 229 224 219 217 216 217 219 218 217 218 219 216 215 215 212 208 209 213 214 215 216 216 219 223 222 224 230
332 330 328 328 329 327 325 324 322 321 321 319 317 316 314 312 305 295 286 278 272 267 263 258 253 250 247 245 244 242 240 240 239 239 238 236 233 232 233 234 233 233 234 235 236 238 237 238 243 249 252 250 246 244 242 239 237 235 233 230 225 221 217 216 217 216 215 217 218 217 218 222 220 216 215 216 214 214 215 216 216 216 215 219 227
332 330 329 330 329 329 327 326 325 324 323 322 321 319 317 314 309 302 293 285 278 271 264 259 256 253 248 245 243 241 241 240 240 240 240 239 237 233 231 232 233 232 234 236 238 239 239 238 241 245 250 252 249 245 243 242 239 237 236 234 232 229 226 223 222 217 214 216 218 219 222 224 224 219 216 216 215 215 216 216 215 216 217 219 223
333 331 331 331 330 330 331 333 334 334 332 330 327 325 322 317 313 309 303 296 287 276 269 265 261 257 251 246 243 241 240 240 240 241 242 241 239 236 232 231 233 234 234 235 237 238 238 239 241 242 244 248 251 248 244 241 239 237 237 236 234 233 232 232 231 227 222 218 218 222 225 223 222 222 221 220 217 212 211 214 216 217 218 223 229
334 332 331 331 330 331 333 334 334 331 328 326 323 321 318 314 312 309 307 303 295 283 274 269 265 261 256 252 248 245 243 243 242 242 242 242 240 237 234 232 233 235 236 236 237 238 238 240 242 243 241 243 246 248 244 240 238 236 234 233 233 232 232 233 232 230 227 224 224 228 229 226 225 227 227 225 221 216 214 215 217 218 221 230 237
332 332 330 329 328 328 328 327 325 322 320 319 317 314 311 309 306 305 303 301 297 291 282 272 266 264 262 257 253 251 249 247 245 244 242 242 241 237 234 232 233 234 236 237 237 238 239 240 240 241 242 242 243 245 245 241 236 235 232 230 230 230 230 231 231 228 227 227 229 232 233 232 232 233 232 231 229 228 228 228 228 226 227 234 239
330 329 327 326 325 324 323 321 319 316 314 313 310 308 305 303 301 300 299 296 293 291 286 278 269 264 263 262 257 254 254 253 250 247 245 244 241 238 234 232 232 234 236 236 235 237 239 238 235 236 240 241 240 242 245 242 236 234 232 229 229 229 230 232 232 229 229 230 233 235 235 236 238 239 239 237 235 233 230 229 229 224 222 230 234
331 328 324 322 320 319 318 316 313 310 309 307 304 302 299 297 296 295 294 292 290 287 283 280 274 266 261 260 258 255 257 258 255 251 249 247 242 237 234 232 232 233 235 235 235 235 235 235 234 234 236 238 238 241 243 241 236 233 231 229 228 229 232 234 233 231 232 234 236 237 238 239 241 241 240 238 237 231 221 217 216 213 214 221 228
330 327 323 320 318 315 313 311 308 306 304 302 301 299 297 294 292 290 287 286 285 284 281 277 275 269 262 258 256 255 256 258 258 255 252 250 245 239 235 233 232 232 233 235 235 234 232 232 232 232 234 237 239 241 241 239 234 231 229 227 226 228 232 234 232 231 232 232 234 236 236 237 238 238 237 235 234 229 221 217 215 211 212 218 223
328 326 323 321 318 314 312 309 305 302 300 298 297 297 295 293 290 287 284 280 279 279 278 274 271 268 264 260 256 255 255 257 257 256 255 254 249 242 236 233 233 233 232 233 234 234 233 232 232 232 234 239 241 241 240 237 233 230 230 227 222 226 233 233 230 230 229 227 229 230 231 232 233 233 234 232 229 228 228 226 220 214 215 219 222
326 326 324 323 319 316 313 309 305 301 297 296 295 294 292 291 289 285 282 279 276 274 272 270 268 266 264 262 259 256 254 255 256 256 256 256 252 246 239 234 233 235 233 230 231 233 234 235 236 236 236 239 241 239 237 235 231 230 233 229 222 227 234 233 228 229 228 227 228 228 228 229 230 229 230 229 226 227 229 228 224 221 220 221 220
328 326 325 323 320 316 314 310 306 303 299 296 295 292 291 289 287 284 281 278 275 271 268 265 264 264 263 262 261 258 255 254 255 255 255 256 255 250 242 236 235 236 234 230 227 229 232 234 236 237 236 238 240 238 237 236 232 228 232 233 231 232 235 232 227 228 229 228 229 229 228 228 228 229 229 227 226 227 226 226 226 225 225 225 224
329 325 323 321 319 316 314 311 308 306 303 301 298 294 292 289 286 283 280 276 272 268 265 262 260 261 262 261 260 260 257 254 253 254 254 255 256 252 246 240 238 236 234 230 226 225 228 231 233 235 235 235 236 236 236 237 235 229 229 233 235 236 233 228 225 225 225 227 228 227 228 228 228 229 229 229 230 229 226 226 228 228 230 232 231
331 326 323 320 318 317 315 313 312 308 305 302 298 293 290 286 283 280 276 272 269 265 261 258 257 259 261 260 258 258 257 256 254 254 254 254 254 253 250 246 242 236 233 231 228 225 226 228 231 234 234 233 233 233 233 235 236 234 230 229 232 234 229 221 221 222 220 223 224 224 226 227 226 229 231 231 232 232 230 230 231 231 233 235 236
331 327 324 322 321 321 320 317 314 311 307 304 298 293 289 285 282 279 274 268 264 260 257 255 254 254 256 258 257 255 254 255 255 256 257 256 254 253 251 249 245 239 234 232 231 228 227 228 231 233 233 232 231 230 229 229 232 235 233 226 226 229 222 214 222 228 223 220 220 221 223 224 224 227 231 232 234 237 237 236 235 233 233 235 238
332 328 325 324 325 325 323 319 316 313 310 307 303 298 295 291 286 281 275 265 258 255 255 253 252 252 252 254 255 253 251 251 253 255 258 258 256 254 251 249 246 240 236 234 234 232 230 231 233 234 233 232 229 225 222 222 225 232 234 226 222 224 219 214 220 226 223 219 219 220 222 224 226 228 231 232 234 238 238 237 237 238 239 241 243
333 330 327 326 329 330 326 322 319 317 314 313 309 304 300 296 290 285 279 268 258 254 254 254 251 250 251 251 252 252 249 247 248 251 253 255 255 253 250 247 245 241 238 237 236 234 232 233 235 234 233 230 227 223 222 222 224 228 232 228 220 216 213 211 216 222 224 222 222 223 226 229 230 231 232 231 232 235 237 238 240 242 244 244 245
335 333 330 329 331 333 330 325 322 321 322 320 316 310 305 298 293 287 281 273 264 257 254 254 252 249 248 249 250 250 247 245 245 245 247 248 249 251 248 244 241 239 237 236 236 233 232 233 233 234 231 226 224 223 223 223 223 225 229 226 215 209 210 217 221 223 224 225 225 227 229 230 229 229 229 228 230 235 238 240 241 243 245 243 241
338 335 333 332 333 334 332 328 324 322 322 321 316 310 306 300 295 289 282 273 266 260 255 252 251 250 248 247 247 248 249 248 247 245 244 244 245 247 245 241 237 234 232 234 234 232 231 232 231 230 226 219 216 218 220 219 221 223 224 218 209 207 214 221 224 225 225 226 225 224 225 224 223 224 225 226 230 235 237 236 237 241 242 237 231
341 339 336 334 333 333 331 327 323 320 319 318 313 308 304 301 296 292 287 279 269 260 256 254 251 252 251 248 246 245 246 248 249 249 250 249 247 244 242 240 237 233 232 233 232 228 227 227 224 219 213 207 206 209 212 214 217 220 218 211 202 202 207 212 216 219 222 222 219 217 218 218 219 222 223 223 228 234 235 235 236 239 239 231 227
342 341 340 337 334 332 329 325 323 321 318 315 312 310 310 310 305 298 294 289 278 266 258 255 254 255 255 254 251 248 248 250 252 251 252 252 250 247 244 243 241 237 234 232 227 222 220 218 214 210 206 202 202 204 207 209 213 216 215 208 199 196 199 204 208 212 215 215 213 213 213 213 214 216 216 218 225 232 233 234 235 235 233 229 229
341 341 341 339 335 332 328 325 325 324 321 316 312 311 314 319 322 323 321 312 294 277 266 260 257 256 256 257 256 254 253 252 251 249 248 250 253 251 247 244 241 238 234 227 216 212 214 213 209 210 209 206 207 209 210 210 212 215 214 207 200 197 196 200 205 208 209 209 209 210 210 209 209 209 210 214 221 226 227 230 230 228 228 228 229
341 342 341 339 337 334 330 329 329 328 327 324 322 320 320 323 329 337 344 347 331 303 285 274 267 262 259 256 256 256 255 255 255 254 253 256 260 261 257 252 245 238 232 224 211 208 213 213 211 213 211 211 215 217 216 216 216 216 214 209 206 204 201 202 205 205 205 206 206 205 206 206 205 205 208 213 217 219 222 225 225 225 226 229 230
344 345 344 342 339 336 333 334 335 333 332 330 330 332 332 331 332 334 340 351 355 344 325 303 284 272 264 259 256 254 255 256 257 257 257 258 259 261 261 258 249 236 227 219 212 215 219 219 219 219 215 215 218 219 219 220 219 217 214 211 212 214 212 209 206 203 204 206 205 202 201 203 205 207 211 215 218 221 224 226 227 227 227 228 230
349 349 349 346 342 338 337 339 338 337 336 335 336 340 339 338 339 337 336 346 353 352 349 342 320 292 278 271 263 257 255 255 253 253 254 255 255 256 255 253 245 232 222 215 214 220 224 223 223 223 221 221 221 219 219 219 218 216 216 217 219 218 215 210 205 202 203 206 206 205 203 202 203 209 214 217 220 225 228 229 231 231 230 230 235
354 354 354 352 348 342 341 343 342 341 340 339 341 346 345 343 343 341 339 345 348 344 345 349 347 337 319 299 285 272 262 255 251 249 249 248 248 247 243 232 220 213 211 211 216 222 225 225 224 224 224 224 222 220 218 215 211 210 213 216 219 215 208 203 202 202 202 202 205 208 207 203 206 212 216 217 218 222 227 232 235 236 237 238 241
357 358 358 356 353 348 346 347 348 346 344 343 344 347 351 351 348 345 344 349 352 348 346 349 354 359 358 341 319 295 273 260 255 250 247 246 244 235 219 206 202 201 201 205 214 223 228 228 226 225 225 222 219 218 215 208 201 199 197 193 190 190 193 199 203 204 206 208 210 211 210 211 214 217 218 218 219 223 229 234 238 241 241 242 243
0 2 1 359 357 353 350 351 352 351 351 351 352 354 356 356 353 352 355 356 355 353 354 357 3 7 8 4 353 327 286 264 257 253 251 250 243 225 207 202 200 195 193 197 204 211 217 217 215 215 212 203 199 204 207 203 198 194 190 188 188 188 192 208 222 223 221 220 218 216 216 217 220 222 222 223 225 229 233 236 239 243 245 245 245
3 6 7 4 1 357 354 353 354 355 356 358 360 0 359 358 358 359 1 1 360 0 2 6 9 9 5 3 4 3 357 331 273 252 238 224 214 206 198 192 186 183 185 189 191 186 179 178 179 178 173 173 178 187 197 198 193 186 178 175 180 186 192 203 217 220 219 220 220 222 225 228 229 230 230 230 232 235 239 241 242 244 247 248 247
3 8 12 10 6 3 359 356 356 357 358 0 4 5 3 2 2 4 4 3 3 5 7 10 13 12 8 7 10 17 31 43 44 43 61 87 111 137 148 148 145 144 146 151 154 150 139 136 142 144 143 148 155 160 167 170 166 163 160 154 150 152 157 163 172 180 188 198 209 220 229 235 238 240 240 242 243 244 245 246 246 247 249 250 250
1 6 13 13 10 7 5 3 1 0 0 1 3 5 6 6 5 5 6 7 6 7 10 12 13 13 13 15 18 23 30 35 36 38 46 54 59 64 74 85 90 93 96 99 103 106 105 103 107 111 113 114 117 121 126 128 126 125 126 124 120 117 117 119 121 119 114 113 116 120 136 175 217 233 239 244 247 249 249 251 253 253 254 254 255
360 3 11 15 13 10 9 8 5 4 5 4 4 5 6 7 8 8 9 9 10 12 13 13 13 15 19 23 30 35 35 34 38 42 45 48 51 54 58 63 69 76 81 84 89 94 97 97 96 96 96 98 100 102 103 105 106 108 107 105 102 99 98 98 99 97 96 94 91 88 86 77 54 359 284 268 264 264 262 261 262 262 261 261 262
359 1 9 15 15 12 11 10 8 8 9 8 8 8 6 6 9 11 12 13 14 15 15 13 13 18 23 27 34 40 39 35 38 43 45 46 48 51 54 59 65 70 74 78 82 85 87 89 91 90 89 90 92 93 92 91 91 94 95 94 93 91 88 87 87 87 88 86 82 77 69 52 22 344 314 295 283 280 278 273 272 271 268 268 269
360 1 8 15 17 17 16 14 12 13 13 11 11 11 9 9 10 11 13 15 16 17 16 15 16 21 24 28 34 39 38 35 37 40 43 45 47 50 54 60 65 70 74 78 82 84 83 83 84 85 85 85 86 87 88 87 86 87 87 87 88 87 84 81 78 74 71 69 64 59 49 33 12 347 327 313 302 298 296 292 290 288 284 282 282
359 3 8 13 16 19 21 20 17 16 16 16 15 15 14 13 12 12 13 15 16 18 19 19 20 22 25 30 35 39 37 35 36 39 42 43 45 49 54 59 65 70 74 76 80 84 85 84 83 83 83 83 82 83 85 85 85 84 83 82 82 80 76 74 70 64 59 55 48 41 33 21 6 352 340 331 323 317 314 310 306 303 299 296 294
349 358 4 9 12 15 18 20 20 19 20 20 20 19 19 17 15 14 14 13 15 18 21 22 25 27 28 30 35 39 40 40 40 42 44 46 45 46 51 57 62 67 70 73 76 79 82 83 82 82 82 82 81 81 81 81 81 81 80 79 78 75 73 71 69 64 59 53 46 38 29 17 4 353 343 335 330 326 322 320 314 308 304 301 298
320 331 347 1 7 10 12 15 16 18 22 24 23 23 24 23 21 19 17 16 16 18 20 23 27 30 32 34 35 37 40 43 45 46 48 50 50 50 53 58 62 65 69 72 76 78 80 81 81 81 81 82 82 81 80 79 79 79 78 77 75 73 70 68 66 63 59 53 49 43 34 21 8 352 337 326 322 321 318 317 314 310 307 306 304
307 303 327 346 351 356 5 10 9 10 17 24 27 29 30 30 29 28 25 22 21 21 20 23 26 29 32 36 38 39 42 45 47 50 52 53 54 54 57 60 64 67 69 72 76 78 79 80 80 81 81 81 80 80 79 79 79 79 79 78 76 75 73 70 67 66 62 57 53 48 42 37 31 18 1 344 332 323 318 317 318 318 317 318 315
325 296 308 336 351 355 1 4 2 3 9 19 28 34 37 37 37 37 34 31 29 26 24 24 26 27 30 33 36 40 44 47 50 52 54 55 56 57 59 61 64 67 69 71 73 76 78 78 79 79 79 78 78 78 77 77 78 78 78 78 77 75 74 72 70 67 64 60 56 52 48 43 37 29 22 16 3 347 336 331 329 330 331 332 329
344 312 294 310 342 360 4 359 353 357 4 10 20 31 36 39 40 41 41 41 40 37 34 32 31 31 32 34 35 38 42 46 48 51 54 57 59 60 61 63 65 67 69 71 71 73 76 77 77 77 76 76 76 76 76 76 77 77 78 81 81 79 77 74 70 67 64 60 58 57 54 50 45 41 37 32 24 17 9 360 353 350 348 345 341
330 321 301 296 307 327 342 340 328 340 357 5 9 17 27 35 38 39 41 43 45 45 45 43 42 41 41 41 41 43 44 46 48 50 52 56 61 63 64 65 65 66 68 71 72 74 75 76 77 77 77 75 75 75 75 75 75 76 79 83 85 84 80 76 72 68 65 62 60 59 57 56 58 59 57 51 44 39 34 28 24 19 13 6 359
303 306 304 299 294 302 323 327 302 290 321 352 359 359 11 29 37 36 35 37 41 45 48 50 51 53 55 54 53 54 54 54 55 57 58 60 62 64 66 67 67 67 68 69 72 74 76 77 78 77 77 76 75 74 74 74 75 77 80 84 86 84 78 73 70 68 65 64 64 64 62 61 62 62 60 57 52 48 47 45 43 38 30 22 15